EA1JL-13 Weather Reports


Display with metric or nautical units.
time (UTC)temp
F
wind
direction
speed
MPH
gust
MPH
rain 1hr
in
rain 24hr
in
rain mn
in
humidity
%
barometer
mb
20221005183012 64 52 3.0 9.0 0.00 0.01 0.01 84 1025.3
20221005181511 65 82 4.0 9.0 0.00 0.01 0.01 84 1025.1
20221005180011 65 8 7.0 13.0 0.00 0.01 0.01 83 1025.1
20221005175752 65 27 4.0 12.0 0.00 0.01 0.01 84 1025.1
20221005174511 66 33 7.0 17.0 0.00 0.01 0.01 84 1024.9
20221005173011 65 49 5.0 9.0 0.00 0.01 0.01 89 1024.6
20221005171511 66 53 0.0 0.0 0.00 0.01 0.01 89 1024.5
20221005170011 66 8 0.0 0.0 0.00 0.01 0.01 87 1024.3
20221005164511 66 4 0.0 0.0 0.00 0.01 0.01 86 1024.2
20221005163012 66 0 0.0 0.0 0.00 0.01 0.01 87 1024.2
20221005161511 65 250 0.0 1.0 0.00 0.01 0.01 89 1024.1
20221005160011 65 264 1.0 2.0 0.01 0.01 0.01 90 1024.1
20221005154511 65 11 0.0 2.0 0.01 0.01 0.01 91 1024.0
20221005153011 65 21 1.0 2.0 0.01 0.01 0.01 90 1024.0
20221005151511 65 358 2.0 3.0 0.01 0.01 0.01 88 1024.0
20221005150011 65 323 0.0 2.0 0.00 0.00 0.00 89 1023.9
20221005144510 65 301 1.0 2.0 0.00 0.00 0.00 89 1024.0
20221005143010 65 313 2.0 5.0 0.00 0.00 0.00 90 1024.0
20221005141511 64 268 2.0 5.0 0.00 0.00 0.00 91 1023.9
20221005134511 64 272 5.0 9.0 0.00 0.00 0.00 89 1023.9
20221005131510 66 262 6.0 9.0 0.00 0.00 0.00 85 1023.9
20221005124510 67 276 5.0 9.0 0.00 0.00 0.00 82 1023.9
20221005121510 67 254 7.0 10.0 0.00 0.00 0.00 78 1023.7
20221005120010 68 262 5.0 6.0 0.00 0.00 0.00 78 1023.5
20221005114511 68 257 2.0 6.0 0.00 0.00 0.00 76 1023.6
20221005113011 69 284 6.0 7.0 0.00 0.00 0.00 74 1023.4
20221005111510 70 221 3.0 7.0 0.00 0.00 0.00 73 1023.4
20221005110011 69 134 2.0 9.0 0.00 0.00 0.00 75 1023.5
20221005104510 68 182 4.0 8.0 0.00 0.00 0.00 77 1023.3
20221005103011 68 145 7.0 9.0 0.00 0.00 0.00 77 1023.3
20221005101511 67 181 9.0 12.0 0.00 0.00 0.00 77 1023.2
20221004201204 59 5 0.0 1.0 0.00 0.00 0.00 90 1021.6
20221004194912 60 260 0.0 1.0 0.00 0.00 0.00 88 1021.5
20221004193011 61 260 0.0 3.0 0.00 0.00 0.00 87 1021.4
20221004191509 62 282 4.0 6.0 0.00 0.00 0.00 86 1021.2
20221004190009 62 294 3.0 6.0 0.00 0.00 0.00 86 1021.2